YAHSAT 1A

Last updated on Mon Oct 20 2025 00:02:47 GMT+0000 (Coordinated Universal Time)

1 37393U 11016B 25292.12336527 .00000098 00000+0 00000+0 0 9998 2 37393 0.0153 230.7298 0002675 358.1215 255.9198 1.00270498 39992
UTC large
Height (km)
Speed (km/s)
/
Latitude / Longitude
Inclination (degrees)
Orbital Period (minutes)
Azimuth
Elevation
Range (km)
Doppler Factor

Next 0 passes for location: London (51.5072 / 0.1276)

Sorry there are no passes over London.